AA9VI-10 Weather Reports


time (UTC)temp
C
wind
direction
speed
KPH
gust
KPH
rain 1hr
cm
rain 24hr
cm
rain mn
cm
humidity
%
barometer
mb
20260507232016 15 225 3.2 11.3 0.00 0.00 0.00 46 1009.0
20260507231017 15 248 4.8 14.5 0.00 0.00 0.00 45 1009.0
20260507230018 15 225 3.2 11.3 0.00 0.00 0.00 46 1009.1
20260507225017 15 225 3.2 9.7 0.00 0.00 0.00 47 1009.1
20260507224017 14 0 3.2 6.4 0.00 0.00 0.00 50 1009.1
20260507223017 13 0 3.2 17.7 0.00 0.00 0.00 49 1009.3
20260507222017 14 270 3.2 9.7 0.00 0.00 0.00 50 1009.5
20260507221017 13 180 3.2 12.9 0.00 0.00 0.00 53 1009.6
20260507220017 12 0 3.2 12.9 0.00 0.00 0.00 56 1009.6
20260507215017 11 225 3.2 8.0 0.00 0.00 0.00 60 1009.6
20260507214017 10 270 1.6 4.8 0.00 0.00 0.00 62 1010.1
20260507213017 10 68 1.6 11.3 0.00 0.00 0.00 62 1010.1
20260507212017 11 113 3.2 8.0 0.00 0.00 0.00 59 1010.3
20260507211017 11 0 1.6 4.8 0.00 0.00 0.00 57 1010.4
20260507210017 12 0 1.6 4.8 0.00 0.00 0.00 60 1010.3
20260507205017 14 0 6.4 22.5 0.00 0.00 0.00 47 1010.1
20260507204017 15 0 6.4 16.1 0.00 0.00 0.00 44 1009.7
20260507203017 16 248 6.4 14.5 0.00 0.00 0.00 38 1009.6
20260507202017 15 180 6.4 22.5 0.00 0.00 0.00 43 1009.7
20260507201017 15 180 8.0 20.9 0.00 0.00 0.00 42 1009.7
20260507200017 15 0 4.8 24.1 0.00 0.00 0.00 47 1009.8
20260507195017 15 0 8.0 22.5 0.00 0.00 0.00 45 1010.1
20260507194017 15 0 8.0 16.1 0.00 0.00 0.00 44 1010.3
20260507193018 15 0 8.0 16.1 0.00 0.00 0.00 45 1010.5
20260507192017 14 0 9.7 25.7 0.00 0.00 0.00 44 1010.6
20260507191018 15 0 8.0 25.7 0.00 0.00 0.00 43 1010.7
20260507190017 14 0 8.0 19.3 0.00 0.00 0.00 43 1010.7
20260507185017 13 225 4.8 16.1 0.00 0.00 0.00 43 1010.8
20260507184017 13 0.0 1.6 0.00 0.00 0.00 43 1011.1
20260507183017 13 0 6.4 17.7 0.00 0.00 0.00 39 1011.2
20260507182017 13 0 4.8 14.5 0.00 0.00 0.00 38 1011.2
20260507181017 13 0 4.8 17.7 0.00 0.00 0.00 39 1011.4
20260507180017 13 0 4.8 14.5 0.00 0.00 0.00 38 1011.6
20260507175017 14 0 6.4 14.5 0.00 0.00 0.00 37 1011.8
20260507174017 13 0 8.0 17.7 0.00 0.00 0.00 40 1012.1
20260507173017 14 0 8.0 17.7 0.00 0.00 0.00 37 1012.3
20260507172017 14 0 6.4 16.1 0.00 0.00 0.00 37 1012.5
20260507171018 14 0 6.4 17.7 0.00 0.00 0.00 38 1012.7
20260507170018 13 0 4.8 16.1 0.00 0.00 0.00 36 1012.9
20260507165017 13 0 4.8 24.1 0.00 0.00 0.00 41 1012.9
20260507164017 12 0 4.8 16.1 0.00 0.00 0.00 38 1013.2
20260507163017 12 0 3.2 14.5 0.00 0.00 0.00 39 1013.4
20260507162017 12 225 6.4 19.3 0.00 0.00 0.00 37 1013.5
20260507161017 12 180 1.6 8.0 0.00 0.00 0.00 41 1013.5
20260507160017 11 225 6.4 11.3 0.00 0.00 0.00 41 1013.8
20260507155017 11 180 3.2 11.3 0.00 0.00 0.00 41 1013.9
20260507154017 11 180 1.6 6.4 0.00 0.00 0.00 43 1013.9
20260507153017 11 203 3.2 9.7 0.00 0.00 0.00 44 1014.1
20260507152017 10 180 4.8 16.1 0.00 0.00 0.00 44 1014.4
20260507151017 10 270 1.6 6.4 0.00 0.00 0.00 45 1014.5
20260507150017 10 270 1.6 6.4 0.00 0.00 0.00 49 1014.7
20260507145017 9 293 3.2 11.3 0.00 0.00 0.00 45 1014.9
20260507144017 8 293 1.6 4.8 0.00 0.00 0.00 49 1015.0
20260507143017 8 248 1.6 12.9 0.00 0.00 0.00 49 1015.0
20260507142018 8 203 1.6 6.4 0.00 0.00 0.00 50 1015.0
20260507141017 7 225 1.6 4.8 0.00 0.00 0.00 52 1015.1
20260507140017 7 225 1.6 4.8 0.00 0.00 0.00 55 1015.1
20260507135017 6 225 3.2 6.4 0.00 0.00 0.00 54 1015.1
20260507134017 6 203 1.6 8.0 0.00 0.00 0.00 56 1015.2
20260507133017 6 248 1.6 4.8 0.00 0.00 0.00 56 1015.3
20260507132017 6 0.0 0.0 0.00 0.00 0.00 62 1015.5
20260507131017 5 203 1.6 6.4 0.00 0.00 0.00 63 1015.4
20260507130017 5 0.0 3.2 0.00 0.00 0.00 67 1015.4
20260507125017 4 203 1.6 6.4 0.00 0.00 0.00 67 1015.2
20260507124017 3 0.0 1.6 0.00 0.00 0.00 69 1015.2
20260507123017 3 0.0 1.6 0.00 0.00 0.00 70 1015.1
20260507122018 3 180 1.6 3.2 0.00 0.00 0.00 71 1015.1
20260507121017 2 0.0 3.2 0.00 0.00 0.00 74 1014.9
20260507120017 2 0.0 1.6 0.00 0.00 0.00 75 1015.0
20260507115017 1 0.0 0.0 0.00 0.00 0.00 77 1014.8
20260507114017 1 0.0 0.0 0.00 0.00 0.00 78 1015.0
20260507113017 1 0.0 0.0 0.00 0.00 0.00 78 1014.7
20260507112017 0 0.0 0.0 0.00 0.00 0.00 79 1014.6
20260507111017 0 0.0 0.0 0.00 0.00 0.00 80 1014.6
20260507110017 0 0.0 0.0 0.00 0.00 0.00 79 1014.7
20260507105017 0 0.0 0.0 0.00 0.00 0.00 79 1014.7
20260507104017 0 0.0 0.0 0.00 0.00 0.00 79 1014.6
20260507103017 0 0.0 0.0 0.00 0.00 0.00 78 1014.6
20260507102017 0 0.0 0.0 0.00 0.00 0.00 78 1014.8
20260507101017 0 0.0 0.0 0.00 0.00 0.00 77 1014.7
20260507100017 0 0.0 3.2 0.00 0.00 0.00 78 1014.8
20260507095017 0 0.0 0.0 0.00 0.00 0.00 77 1014.8
20260507094017 0 0.0 0.0 0.00 0.00 0.00 77 1014.8
20260507093017 0 0.0 0.0 0.00 0.00 0.00 76 1014.9
20260507092017 0 0.0 0.0 0.00 0.00 0.00 76 1014.8
20260507091017 0 0.0 0.0 0.00 0.00 0.00 76 1014.7
20260507090017 1 0.0 0.0 0.00 0.00 0.00 75 1014.8
20260507085017 1 0.0 0.0 0.00 0.00 0.00 74 1014.8
20260507084017 0 0.0 0.0 0.00 0.00 0.00 75 1014.8
20260507083017 1 0.0 0.0 0.00 0.00 0.00 75 1014.8
20260507082017 1 0.0 0.0 0.00 0.00 0.00 74 1014.8
20260507081017 1 0.0 0.0 0.00 0.00 0.00 74 1014.8
20260507080017 1 0.0 0.0 0.00 0.00 0.00 73 1014.8
20260507075017 1 0.0 0.0 0.00 0.00 0.00 73 1014.9
20260507074017 1 0.0 0.0 0.00 0.00 0.00 72 1014.9
20260507073017 1 0.0 0.0 0.00 0.00 0.00 72 1015.0
20260507072017 1 0.0 0.0 0.00 0.00 0.00 72 1015.1
20260507071017 1 0.0 0.0 0.00 0.00 0.00 73 1015.2
20260507070017 2 0.0 0.0 0.00 0.00 0.00 72 1015.1
20260507065017 2 0.0 0.0 0.00 0.00 0.00 73 1015.1
20260507064017 2 0.0 0.0 0.00 0.00 0.00 72 1015.2
20260507063017 2 0.0 0.0 0.00 0.00 0.00 71 1015.2
20260507062017 2 0.0 0.0 0.00 0.00 0.00 70 1015.3
20260507061017 2 0.0 0.0 0.00 0.00 0.00 70 1015.4
20260507060017 2 0.0 0.0 0.00 0.00 0.00 70 1015.3
20260507055017 2 0.0 0.0 0.00 0.00 0.00 68 1015.2
20260507054017 2 0.0 0.0 0.00 0.00 0.00 67 1015.2
20260507053017 3 0.0 0.0 0.00 0.00 0.00 66 1015.3
20260507052017 3 0.0 0.0 0.00 0.00 0.00 64 1015.4
20260507051017 3 0.0 0.0 0.00 0.00 0.00 64 1015.3
20260507050017 3 0.0 0.0 0.00 0.00 0.00 61 1015.3
20260507045016 4 0.0 0.0 0.00 0.00 0.00 61 1015.4
20260507044016 4 0.0 0.0 0.00 0.00 0.00 61 1015.3
20260507043016 4 0.0 0.0 0.00 0.00 0.00 61 1015.3
20260507042016 5 0.0 0.0 0.00 0.00 0.00 60 1015.3
20260507041016 5 0.0 0.0 0.00 0.00 0.00 59 1015.3
20260507040016 5 0.0 0.0 0.00 0.00 0.00 57 1015.2
20260507035016 5 0.0 0.0 0.00 0.00 0.00 56 1015.4
20260507034016 5 0.0 0.0 0.00 0.00 0.00 55 1015.4
20260507033016 6 0.0 0.0 0.00 0.00 0.00 54 1015.5
20260507032016 6 0.0 1.6 0.00 0.00 0.00 52 1015.5
20260507031016 6 0.0 1.6 0.00 0.00 0.00 51 1015.4
20260507030016 6 0.0 0.0 0.00 0.00 0.00 50 1015.3
20260507025016 6 0.0 1.6 0.00 0.00 0.00 51 1015.3
20260507024016 6 0.0 1.6 0.00 0.00 0.00 50 1015.2
20260507023016 6 0.0 3.2 0.00 0.00 0.00 49 1015.1
20260507022016 7 0.0 1.6 0.00 0.00 0.00 49 1015.0
20260507021016 7 0.0 1.6 0.00 0.00 0.00 48 1014.9
20260507020516 7 0.0 0.0 0.00 0.00 0.00 48 1014.7
20260507015659 7 0.0 3.2 0.00 0.00 0.00 46 1014.7
20260507015016 7 0.0 4.8 0.00 0.00 0.00 45 1014.7
20260507014016 7 0 1.6 4.8 0.00 0.00 0.00 45 1014.6
20260507013016 8 0.0 3.2 0.00 0.00 0.00 44 1014.6
20260507012016 8 293 1.6 6.4 0.00 0.00 0.00 44 1014.5
20260507011016 8 293 1.6 6.4 0.00 0.00 0.00 43 1014.4
20260507010016 8 293 1.6 4.8 0.00 0.00 0.00 42 1014.3
20260507005016 8 293 3.2 4.8 0.00 0.00 0.00 41 1014.2
20260507004016 9 315 1.6 6.4 0.00 0.00 0.00 41 1014.0
20260507003016 9 315 3.2 12.9 0.00 0.00 0.00 41 1014.0
20260507002016 10 293 3.2 6.4 0.00 0.00 0.00 41 1013.9
20260507001016 10 315 4.8 8.0 0.00 0.00 0.00 40 1013.7
20260507000016 10 293 3.2 11.3 0.00 0.00 0.00 41 1013.6
20260506235016 10 315 3.2 9.7 0.00 0.00 0.00 40 1013.5
20260506234016 11 0 3.2 9.7 0.00 0.00 0.00 40 1013.4
20260506233016 11 0 3.2 12.9 0.00 0.00 0.00 40 1013.4